Theta_e
325 328 324 327 334 334 337 335 332 333 333 332 329 331 331 336 337 338 338 338 338 340 342 341 338 338 339 336 334 333 334 333 333 333 333 333 332 331 330 327 326 329 329 328 327 327 326 328 325
325 327 327 330 333 335 337 333 333 333 335 333 334 334 332 334 336 339 338 339 339 340 342 341 338 337 338 335 333 333 333 332 332 333 332 331 331 329 328 327 327 327 327 326 326 326 325 325 326
327 326 330 332 334 337 337 333 332 334 333 332 336 336 336 337 336 338 338 339 339 340 341 341 337 338 337 334 333 333 333 331 331 333 331 332 331 331 329 326 327 326 327 326 326 325 325 324 323
328 331 329 332 335 331 334 333 333 334 332 333 334 335 336 336 336 337 338 339 339 340 341 338 337 337 336 334 335 333 332 333 330 330 333 331 330 329 327 326 326 326 326 326 326 326 325 323 324
328 331 333 335 335 331 328 328 332 333 333 332 332 335 337 336 337 337 339 339 339 340 340 340 337 337 335 334 334 334 333 332 331 325 334 331 329 326 327 326 326 325 325 326 326 325 323 323 324
330 329 334 335 334 329 327 326 328 332 332 332 333 334 336 336 338 338 339 339 339 339 340 340 337 336 334 334 334 333 332 331 330 328 330 332 329 325 326 326 325 325 325 325 325 324 324 324 324
331 332 335 335 333 330 328 326 329 332 333 333 333 332 335 337 336 339 339 339 339 339 340 340 339 337 335 334 333 332 331 330 329 328 330 330 330 327 326 325 324 325 325 325 324 323 324 323 323
329 331 335 334 334 332 327 327 327 330 333 329 330 333 333 336 337 338 338 339 339 339 339 339 339 339 338 337 333 330 331 329 328 327 329 328 326 328 327 326 324 324 324 325 324 320 323 322 323
323 328 334 335 333 329 326 327 324 324 331 331 332 332 333 335 337 338 338 339 339 338 338 339 339 339 338 338 336 331 331 330 329 328 327 328 327 328 327 326 326 324 324 323 323 318 317 318 322
327 327 327 328 328 328 327 327 327 325 327 328 328 331 334 335 337 338 339 338 338 338 337 338 338 338 338 337 335 334 334 332 332 330 329 327 327 327 328 327 326 324 324 323 323 319 317 316 320
327 325 324 325 325 326 327 326 325 327 328 326 327 327 331 335 336 336 336 336 337 338 338 337 337 337 338 337 336 336 335 333 333 331 330 328 327 327 326 327 327 326 325 325 325 325 322 321 319
326 325 324 324 325 326 327 326 327 326 326 323 324 322 327 329 331 331 331 332 333 335 336 337 338 336 335 337 337 336 336 334 333 331 330 329 327 327 326 325 327 327 326 326 326 325 324 322 320
325 327 325 325 324 324 324 326 326 326 325 322 321 322 325 324 324 324 325 326 328 330 332 334 336 337 336 335 337 337 336 335 334 332 330 329 328 327 326 325 325 326 326 325 325 325 324 323 321
323 324 324 323 324 324 325 324 323 324 322 323 322 323 321 320 320 320 321 321 322 323 325 327 332 334 336 336 335 336 335 335 335 333 332 330 328 328 327 326 325 324 325 325 325 325 324 324 323
323 325 324 324 323 323 323 323 323 321 321 322 320 320 319 319 319 319 319 319 319 320 321 323 325 329 332 333 335 335 335 334 335 334 333 331 329 328 327 327 326 325 324 324 324 324 324 324 324
323 322 318 316 322 321 320 314 320 320 320 321 320 320 320 320 319 319 318 317 317 317 318 320 322 324 327 329 331 333 335 335 335 335 333 332 331 329 329 328 327 326 325 324 324 323 323 323 323
324 318 319 319 321 321 320 318 320 318 320 320 320 319 319 319 319 318 316 316 316 316 316 317 318 321 324 327 329 331 333 333 334 334 333 332 330 330 330 329 328 327 326 325 324 324 323 323 322
316 316 319 316 320 322 323 321 320 320 319 318 318 319 319 319 319 317 315 313 313 313 314 315 316 318 321 324 327 329 330 331 332 331 331 332 331 330 329 329 329 328 327 326 325 325 324 323 322
316 318 316 319 319 320 319 319 318 318 319 319 318 318 318 318 317 314 311 311 311 312 312 312 313 315 317 322 326 327 328 329 329 330 330 329 329 328 329 330 330 329 327 327 327 326 325 324 322
319 319 319 318 319 320 319 319 319 319 319 319 318 318 317 317 315 311 310 310 310 310 311 312 312 312 314 319 323 324 325 327 328 329 329 329 328 328 327 328 329 329 326 327 327 326 325 324 323
322 321 319 318 319 319 319 318 317 316 316 317 317 317 317 314 312 310 310 308 308 308 308 310 312 314 315 314 318 322 325 327 327 328 329 330 328 327 327 326 326 327 327 325 325 326 325 325 323
322 320 320 320 321 322 317 322 317 316 316 316 316 316 315 312 310 309 308 306 305 305 305 305 306 309 312 319 318 322 324 325 325 326 328 329 329 329 328 327 326 325 326 325 325 325 324 324 324
320 319 320 321 321 321 321 320 317 315 316 315 315 315 313 311 310 308 306 304 303 302 303 302 302 303 306 310 319 324 326 326 327 327 328 328 329 329 329 328 326 326 325 326 325 325 324 323 323
317 318 319 320 320 323 318 319 314 315 315 315 315 313 312 310 308 305 303 302 301 300 300 301 300 299 301 303 306 309 313 317 321 321 326 327 328 328 327 327 328 327 327 326 325 325 324 323 322
319 319 319 322 322 317 313 318 316 314 313 314 314 313 311 308 306 304 302 300 299 298 297 298 297 296 297 299 301 302 305 307 308 308 309 314 319 321 322 325 327 327 326 326 326 325 325 324 323
320 318 317 317 319 315 313 318 315 314 313 312 312 312 309 306 304 302 299 298 296 296 295 295 296 294 294 295 297 298 299 302 301 301 302 303 305 306 310 316 320 322 326 325 325 325 325 325 324
318 321 315 314 308 315 313 313 311 312 312 312 312 310 308 306 303 301 298 296 294 293 293 292 293 293 292 292 294 295 295 296 295 296 297 298 298 298 299 301 304 307 316 319 324 324 325 324 324
315 314 317 318 319 318 313 312 311 311 312 313 311 311 308 304 301 298 296 294 292 291 290 291 289 291 289 290 292 293 293 293 292 292 292 294 294 294 295 296 298 301 303 306 312 318 323 323 323
314 316 315 315 317 315 313 311 310 311 310 310 310 311 307 303 300 297 295 292 290 289 288 289 287 288 287 287 289 289 290 289 289 289 289 290 291 291 292 293 294 296 297 299 302 305 310 314 321
315 314 314 314 316 314 313 312 308 309 309 309 309 310 305 301 297 295 292 291 289 288 287 287 285 285 284 285 286 287 288 286 286 287 287 287 288 288 289 290 291 293 294 295 297 300 304 307 309
Wind_Speed
24 12 4 1 2 2 5 5 2 3 3 3 3 2 7 6 5 3 2 6 7 10 10 10 12 12 12 9 8 7 7 5 7 7 9 9 10 9 10 10 10 10 11 11 11 11 10 12 11
19 9 2 1 1 5 6 3 5 6 6 3 3 2 2 5 2 4 8 3 12 12 11 9 9 10 10 8 7 7 6 6 6 7 8 6 8 10 9 8 9 9 9 9 10 10 10 9 9
10 6 1 2 1 6 7 4 6 5 2 1 3 4 2 3 2 5 3 10 13 12 11 12 12 11 10 8 8 6 4 3 5 7 6 7 7 8 10 8 7 7 8 8 10 8 8 8 8
6 0 3 3 11 5 6 5 3 3 3 3 2 4 3 3 1 1 5 12 13 12 10 11 13 13 12 10 7 7 5 4 2 5 6 6 7 7 7 9 8 8 7 8 9 7 5 6 6
5 0 3 6 8 5 4 3 1 4 3 5 5 4 4 2 3 3 9 11 11 11 10 11 12 12 11 10 8 7 6 5 4 3 8 7 6 6 9 7 7 7 7 8 8 8 6 7 5
1 2 4 6 7 5 3 3 1 4 3 4 2 2 4 2 1 4 8 9 9 9 9 9 12 12 11 10 8 8 7 8 8 5 6 8 6 3 8 8 7 6 6 7 7 11 9 7 5
3 3 3 8 8 5 3 2 2 4 3 6 3 2 3 3 1 5 7 7 7 7 9 9 10 12 12 11 10 9 9 8 9 10 10 8 7 6 7 8 8 8 7 7 8 9 10 8 7
2 1 6 2 8 4 2 2 2 2 4 1 2 3 4 3 3 6 7 7 7 7 9 9 10 11 12 11 12 11 10 10 10 12 14 14 10 11 10 9 10 12 11 10 11 9 10 9 9
1 2 5 5 7 5 3 3 2 1 2 2 3 3 3 2 4 6 7 7 8 9 11 11 12 12 12 12 11 13 13 12 12 12 13 15 11 13 13 12 12 13 13 12 12 11 11 11 11
1 3 3 2 4 6 4 2 3 3 5 3 3 3 4 5 4 5 7 7 10 11 12 13 13 14 13 13 13 13 13 13 13 13 12 13 12 13 14 15 16 13 13 12 13 13 12 12 10
2 3 6 5 4 3 3 3 1 2 3 2 4 4 3 2 3 6 7 9 10 10 12 13 16 16 15 14 13 13 14 14 14 15 14 13 13 14 16 15 15 15 14 13 13 12 12 12 11
5 4 5 6 4 3 3 2 2 3 2 2 2 3 3 1 3 7 9 10 10 12 14 15 16 17 20 17 16 15 15 14 15 16 17 16 15 15 15 15 15 16 15 15 15 14 15 14 14
6 5 4 4 4 3 3 5 3 6 5 1 3 4 3 3 5 8 11 13 14 15 15 16 16 19 18 22 19 18 18 17 18 18 18 19 18 18 16 16 17 17 17 17 17 17 17 16 16
4 4 2 1 4 3 5 4 5 5 3 3 3 4 3 4 5 10 11 13 14 16 18 15 16 18 18 20 20 21 20 21 20 20 21 22 22 19 18 18 18 19 19 19 19 18 18 18 17
5 7 1 5 5 5 4 11 11 10 5 7 4 4 4 9 12 14 16 16 17 19 20 20 17 15 18 20 22 22 22 20 21 22 22 23 23 23 21 20 19 19 19 19 19 19 20 21 20
5 3 7 7 8 4 6 12 2 7 8 8 7 7 8 12 16 17 15 17 18 17 17 18 18 19 18 19 20 20 21 21 21 21 20 23 24 25 23 23 23 21 20 19 20 20 21 22 22
6 4 11 3 7 4 12 7 5 6 5 8 11 12 12 14 18 15 16 14 15 15 15 17 16 19 18 19 18 19 18 20 23 23 25 24 25 24 24 24 24 22 22 22 21 21 22 22 22
10 7 6 7 7 7 9 15 8 10 11 14 14 13 15 15 16 15 14 12 12 12 13 15 15 16 15 15 16 16 18 20 22 24 27 25 26 24 24 25 25 23 23 23 23 24 23 24 23
7 8 7 5 5 5 13 14 15 13 13 15 16 16 16 15 13 8 8 10 11 10 12 12 14 14 12 13 14 15 18 17 19 23 27 26 28 29 25 25 24 24 26 25 24 24 24 24 21
7 7 6 2 4 4 9 14 15 19 15 18 18 17 14 8 5 4 8 11 12 13 14 14 13 13 11 12 13 14 13 14 17 16 18 22 27 30 29 26 24 23 25 25 26 25 24 24 22
14 14 11 8 3 6 10 14 9 8 8 12 14 12 6 2 1 4 8 11 12 15 16 15 15 14 10 11 12 12 12 13 13 14 16 18 21 25 28 29 28 25 27 28 28 27 26 24 21
16 10 7 5 3 4 4 7 8 8 12 8 8 10 5 6 5 5 7 10 13 14 14 16 16 16 14 10 6 8 10 11 11 12 13 14 15 18 21 26 28 28 26 28 29 29 30 29 24
6 11 11 8 8 9 12 4 5 4 14 16 14 5 7 7 7 6 7 7 10 12 14 15 17 19 19 17 13 4 5 7 8 10 11 13 14 15 16 20 24 26 27 30 32 31 31 32 30
10 8 4 2 2 8 14 11 9 12 12 12 11 7 10 8 7 7 7 7 9 11 13 15 17 20 20 19 18 15 12 10 8 9 10 11 11 11 14 17 20 24 27 29 31 33 33 32 33
14 14 4 6 6 8 0 13 18 7 13 13 10 11 10 8 6 5 6 8 10 14 15 15 17 19 18 18 18 17 15 13 11 12 12 12 12 13 13 17 18 21 25 29 30 31 33 33 33
18 14 6 7 7 5 3 11 6 12 13 3 3 13 11 9 7 6 7 8 9 12 14 14 16 17 18 17 16 16 16 13 13 12 11 10 11 13 16 16 17 19 23 25 29 32 33 32 34
8 13 13 1 2 3 7 8 10 10 12 11 11 13 11 9 7 6 6 6 8 9 10 12 13 13 16 15 15 15 15 15 15 14 13 12 12 14 16 16 17 20 20 20 28 29 30 30 33
10 10 5 6 8 9 11 15 13 10 16 17 12 13 11 9 8 6 5 5 5 7 8 9 12 12 14 14 14 13 14 14 14 14 16 16 16 16 18 18 18 19 19 20 22 21 27 29 31
8 12 7 5 9 9 8 9 10 18 16 16 15 17 15 12 9 7 6 4 4 5 8 8 12 12 13 14 13 13 13 14 15 14 15 16 16 17 17 18 18 18 21 21 19 23 22 25 29
19 17 19 9 9 11 12 15 7 7 11 12 14 16 14 12 10 8 6 4 2 4 7 8 11 12 13 14 14 14 15 16 16 16 17 17 18 17 17 18 17 19 19 21 21 23 27 19 23
Wind_Direction
346 340 353 214 194 100 90 79 9 84 103 52 80 9 59 26 2 40 60 148 135 147 151 156 161 163 161 149 137 130 127 123 120 134 141 125 120 122 125 124 122 119 124 127 117 114 106 96 96
343 351 2 82 170 142 95 83 78 66 91 102 112 115 88 73 50 97 133 143 149 153 153 160 171 162 158 150 140 134 124 142 136 134 142 144 130 138 135 130 132 129 129 131 130 122 121 112 103
344 2 337 57 98 107 112 101 91 100 110 37 128 29 36 54 78 143 133 154 156 159 161 166 166 171 168 164 153 148 159 137 156 167 159 154 149 156 145 144 141 136 139 140 138 132 139 131 138
338 116 110 71 101 82 90 98 88 129 115 49 33 82 114 24 354 172 158 159 161 163 166 176 174 177 180 176 174 168 175 178 148 184 187 163 156 165 157 162 157 155 152 151 156 146 157 168 163
5 347 92 103 90 97 87 46 53 56 77 41 344 88 68 75 6 151 153 163 170 168 173 177 182 185 192 191 189 185 185 195 204 226 214 188 180 174 179 180 171 174 170 170 176 191 184 179 174
38 307 137 132 116 107 92 16 13 67 49 57 55 79 69 359 75 157 167 171 179 179 182 188 192 196 202 206 204 208 211 206 213 214 205 205 194 201 187 193 194 197 195 196 205 204 191 188 176
28 4 99 133 127 133 96 356 56 87 108 59 7 74 76 95 83 146 164 177 187 195 196 197 200 208 212 218 223 231 230 214 210 208 202 215 220 212 213 223 218 211 218 219 227 214 205 202 198
26 16 141 153 161 120 75 101 52 34 77 52 332 54 80 48 123 147 166 187 203 209 211 213 214 216 218 225 232 236 236 228 217 212 210 212 226 227 230 235 237 230 231 230 242 230 221 221 216
310 200 165 153 169 127 115 153 89 50 124 76 31 34 36 94 149 165 184 206 216 220 220 224 227 227 230 235 238 238 237 234 232 224 225 226 220 215 222 236 237 233 246 246 248 241 235 233 229
256 219 138 92 123 131 104 90 95 184 139 110 114 90 72 143 172 201 221 230 230 233 234 230 231 232 235 240 238 236 234 230 227 230 229 223 224 217 215 221 230 236 250 260 263 257 248 242 241
161 205 147 156 132 128 98 105 19 169 144 120 126 88 65 151 215 244 259 261 262 255 245 238 234 233 234 239 239 237 236 235 231 227 227 229 231 231 229 229 225 222 235 236 246 252 250 248 248
188 151 161 148 150 146 156 121 185 266 103 46 123 41 332 318 304 298 292 288 281 269 262 253 242 238 240 237 242 243 239 237 236 235 230 224 227 234 236 237 232 225 226 232 238 241 243 247 249
208 167 154 126 156 181 151 215 249 242 188 189 240 271 233 300 304 294 295 297 295 284 277 265 252 244 244 244 241 243 242 242 239 237 233 230 230 228 229 234 234 236 237 234 234 239 244 248 249
162 144 125 131 181 229 228 216 190 223 233 203 225 224 251 283 292 291 285 287 289 293 289 284 264 253 249 246 243 241 241 240 239 237 235 234 232 235 235 233 233 236 237 241 242 241 244 247 249
127 159 214 224 224 235 194 244 228 231 228 250 234 262 297 291 289 281 286 294 292 287 285 286 284 267 255 252 249 245 244 240 238 239 238 234 235 235 237 239 238 238 238 240 242 245 248 249 248
171 197 216 206 225 210 212 246 142 200 199 215 253 260 272 278 278 284 297 298 298 298 289 285 279 274 263 255 251 248 246 244 243 242 242 239 238 237 236 239 240 238 236 239 243 244 246 249 250
196 197 214 220 204 185 204 257 205 187 187 271 275 283 282 277 279 292 310 313 306 297 290 285 278 269 264 260 257 253 251 248 242 239 239 244 241 237 235 239 241 238 237 237 237 244 247 252 254
201 210 201 203 178 213 211 248 230 227 272 270 274 274 270 274 284 316 324 326 318 306 294 286 282 277 271 263 257 254 251 246 242 241 244 243 246 241 236 240 242 237 236 238 236 235 238 244 250
217 216 209 180 185 218 242 257 269 265 262 266 263 259 260 270 303 326 358 355 348 343 328 310 294 285 275 257 250 248 250 251 251 250 247 247 250 249 238 243 244 238 234 239 240 241 240 240 241
196 200 204 200 182 242 271 269 272 268 255 246 255 261 269 277 301 15 16 11 9 3 358 351 328 305 284 258 249 249 255 255 256 257 255 247 249 254 249 243 244 244 239 241 243 239 240 239 234
225 236 244 256 325 236 296 282 257 261 266 248 248 252 266 271 82 34 33 29 21 18 11 6 1 352 327 283 264 255 253 257 262 262 260 252 247 250 254 255 250 250 241 241 244 241 232 235 235
225 208 205 190 270 258 50 295 255 255 272 255 232 231 231 155 116 73 47 37 31 24 23 23 20 18 13 360 277 257 260 268 277 280 277 272 260 253 251 255 258 255 249 251 251 248 238 235 240
212 163 197 220 247 281 251 253 248 262 253 251 248 206 159 138 127 108 79 54 37 29 29 30 31 33 31 30 36 353 298 293 296 296 292 285 277 266 262 257 256 255 253 252 253 249 243 237 237
147 117 91 135 228 252 232 215 237 217 238 232 244 176 153 145 122 103 86 70 49 36 34 32 34 36 35 37 38 38 31 25 23 3 340 318 301 289 277 269 262 258 254 253 255 256 248 243 240
172 171 184 201 204 244 200 213 251 208 248 236 198 172 158 144 130 103 76 57 41 34 31 31 31 30 29 34 35 33 32 32 30 15 2 357 0 354 330 301 283 275 267 259 259 256 254 250 244
198 188 189 203 213 232 152 227 246 224 230 201 184 177 156 145 131 101 66 55 43 35 31 29 28 26 23 25 26 27 28 26 22 17 14 9 357 343 326 322 318 305 282 272 265 262 259 254 250
183 216 216 290 80 246 213 240 268 233 224 209 158 169 164 155 147 120 95 65 47 37 31 27 22 21 19 19 19 19 20 19 11 8 7 2 1 351 347 343 334 321 313 315 275 268 261 261 256
203 168 180 203 224 234 236 245 240 194 214 211 198 192 178 159 149 134 115 87 61 43 33 29 23 19 10 10 12 9 9 8 5 3 1 356 351 352 349 348 349 341 336 332 312 313 283 270 265
188 204 214 216 223 230 252 244 237 229 204 206 208 197 183 173 170 164 147 114 72 50 35 31 18 14 10 10 7 5 4 1 357 356 355 349 345 348 350 349 344 345 339 334 334 323 304 317 294
216 212 203 204 203 240 256 257 170 218 225 228 206 185 177 174 170 164 154 151 93 43 31 29 12 10 6 3 2 2 360 358 358 356 352 348 348 347 345 348 346 342 341 335 336 333 326 324 319